This is the latest recevied weather packets stored in our database for station/object DK9XR-14. If no packets are shown the sender has not sent any weather packets the latest 1 day(s).
| Time | Temp. | Humidity | Pressure | Rain* | Wind** | Luminosity | Snow |
|---|---|---|---|---|---|---|---|
| 1778013758 | 13.33° C | 81% | 1010.1 hPa | 0 mm | 0.89 m/s, 212° | - | - |
| 1778013454 | 13.33° C | 81% | 1010.2 hPa | 0 mm | 0.45 m/s, 220° | - | - |
| 1778013154 | 13.33° C | 80% | 1010.2 hPa | 0 mm | 1.79 m/s, 289° | - | - |
| 1778012856 | 13.33° C | 81% | 1010.2 hPa | 0 mm | 1.34 m/s, 310° | - | - |
| 1778012554 | 13.33° C | 80% | 1010.3 hPa | 0 mm | 1.34 m/s, 237° | - | - |
| 1778012252 | 13.33° C | 81% | 1010.3 hPa | 0 mm | 0.89 m/s, 283° | - | - |
| 1778011953 | 13.33° C | 80% | 1010.3 hPa | 0 mm | 1.79 m/s, 234° | - | - |
| 1778011653 | 13.89° C | 80% | 1010.3 hPa | 0 mm | 0.89 m/s, 220° | - | - |
| 1778011349 | 13.89° C | 79% | 1010.3 hPa | 0 mm | 1.34 m/s, 261° | - | - |
| 1778011049 | 14.44° C | 77% | 1010.3 hPa | 0 mm | 2.24 m/s, 244° | - | - |
| 1778010750 | 15° C | 74% | 1010.2 hPa | 0 mm | 3.13 m/s, 299° | - | - |
| 1778010449 | 15° C | 73% | 1010.1 hPa | 0 mm | 4.02 m/s, 289° | - | - |
| 1778010149 | 15.56° C | 72% | 1010.1 hPa | 0 mm | 2.68 m/s, 300° | - | - |
| 1778009852 | 15.56° C | 70% | 1009.8 hPa | 0 mm | 3.13 m/s, 266° | - | - |
| 1778009540 | 15.56° C | 70% | 1009.7 hPa | 0 mm | 1.34 m/s, 276° | - | - |
| 1778009239 | 15.56° C | 70% | 1009.6 hPa | 0 mm | 0.45 m/s, 293° | - | - |
| 1778008940 | 15.56° C | 70% | 1009.5 hPa | 0 mm | 0.45 m/s, 257° | - | - |
| 1778008637 | 15.56° C | 70% | 1009.3 hPa | 0 mm | 1.34 m/s, 283° | - | - |
| 1778008337 | 15° C | 71% | 1009.2 hPa | 0 mm | 0.89 m/s, 265° | - | - |
| 1778008038 | 15° C | 71% | 1009.2 hPa | 0 mm | 0 m/s | - | - |
| 1778007739 | 15° C | 71% | 1009.1 hPa | 0 mm | 0.45 m/s, 235° | - | - |
| 1778007436 | 15° C | 72% | 1009.2 hPa | 0 mm | 0 m/s | - | - |
| 1778007136 | 15° C | 72% | 1009.1 hPa | 0 mm | 0 m/s | - | - |
| 1778006835 | 15.56° C | 72% | 1009.1 hPa | 0 mm | 0 m/s | - | - |
| 1778006531 | 15.56° C | 72% | 1009 hPa | 0 mm | 0 m/s | - | - |
* Rain latest hour (hover to see other rain measurements)
** Current wind speed in m/s (hover to see current wind gust speed)